Time,TemperatureF,DewpointF,PressureIn,WindDirection,WindDirectionDegrees,WindSpeedMPH,WindSpeedGustMPH,Humidity,HourlyPrecipIn,Conditions,Clouds,dailyrainin,SoftwareType,DateUTC
2013-01-20 00:38:00,43.4,24.0,29.80,SW,230,8.0,14.0,46,0.00,,,0.00,Wunderground v.1.15,2013-01-20 05:38:00,
2013-01-20 00:39:00,43.5,24.6,29.80,NNW,345,8.0,14.0,47,0.00,,,0.00,Wunderground v.1.15,2013-01-20 05:39:00,
2013-01-20 00:41:00,43.5,24.6,29.79,SW,226,8.0,14.0,47,0.00,,,0.00,Wunderground v.1.15,2013-01-20 05:41:00,
2013-01-20 00:47:00,43.3,24.4,29.78,SW,224,8.0,14.0,47,0.00,,,0.00,Wunderground v.1.15,2013-01-20 05:47:00,
2013-01-20 00:52:00,43.1,25.2,29.79,WSW,254,7.0,13.0,49,0.00,,,0.00,Wunderground v.1.15,2013-01-20 05:52:00,
2013-01-20 00:57:00,43.1,24.7,29.79,SW,220,7.0,11.0,48,0.00,,,0.00,Wunderground v.1.15,2013-01-20 05:57:00,
2013-01-20 01:02:00,43.1,24.7,29.79,SW,215,8.0,8.0,48,0.00,,,0.00,Wunderground v.1.15,2013-01-20 06:02:00,
2013-01-20 01:07:00,42.9,26.0,29.79,WSW,240,7.0,11.0,51,0.00,,,0.00,Wunderground v.1.15,2013-01-20 06:07:00,
2013-01-20 01:13:00,42.6,24.8,29.79,South,189,7.0,7.0,49,0.00,,,0.00,Wunderground v.1.15,2013-01-20 06:13:00,
2013-01-20 01:18:00,42.7,25.8,29.79,West,281,7.0,10.0,51,0.00,,,0.00,Wunderground v.1.15,2013-01-20 06:18:00,
2013-01-20 07:24:00,39.8,30.5,29.78,West,278,6.0,17.0,69,0.00,,,0.00,Wunderground v.1.15,2013-01-20 12:24:00,
2013-01-20 10:54:00,36.6,22.8,29.86,NW,314,5.0,17.0,57,0.00,,,0.00,Wunderground v.1.15,2013-01-20 15:54:00,
2013-01-20 10:59:00,36.5,23.1,29.86,West,276,6.0,17.0,58,0.00,,,0.00,Wunderground v.1.15,2013-01-20 15:59:00,
2013-01-20 11:04:00,36.5,22.7,29.87,SW,235,6.0,8.0,57,0.00,,,0.00,Wunderground v.1.15,2013-01-20 16:04:00,
2013-01-20 11:10:00,36.4,22.6,29.87,WNW,293,5.0,13.0,57,0.00,,,0.00,Wunderground v.1.15,2013-01-20 16:10:00,
2013-01-20 11:17:00,36.5,22.7,29.87,WNW,292,5.0,9.0,57,0.00,,,0.00,Wunderground v.1.15,2013-01-20 16:17:00,
2013-01-20 11:22:00,36.4,21.8,29.88,North,7,4.0,4.0,55,0.00,,,0.00,Wunderground v.1.15,2013-01-20 16:22:00,
2013-01-20 11:27:00,36.2,21.6,29.87,NNW,329,5.0,9.0,55,0.00,,,0.00,Wunderground v.1.15,2013-01-20 16:27:00,
2013-01-20 11:32:00,36.0,21.8,29.88,NNE,17,6.0,9.0,56,0.00,,,0.00,Wunderground v.1.15,2013-01-20 16:32:00,
2013-01-20 11:37:00,36.0,22.2,29.88,NNW,343,6.0,9.0,57,0.00,,,0.00,Wunderground v.1.15,2013-01-20 16:37:00,
2013-01-20 11:42:00,36.0,20.9,29.88,WNW,293,5.0,5.0,54,0.00,,,0.00,Wunderground v.1.15,2013-01-20 16:42:00,
2013-01-20 11:47:00,36.0,21.8,29.88,West,264,5.0,8.0,56,0.00,,,0.00,Wunderground v.1.15,2013-01-20 16:47:00,
2013-01-20 11:52:00,36.0,20.9,29.87,NW,323,5.0,5.0,54,0.00,,,0.00,Wunderground v.1.15,2013-01-20 16:52:00,
2013-01-20 13:10:00,33.4,17.2,29.90,NW,309,4.0,4.0,51,0.00,,,0.00,Wunderground v.1.15,2013-01-20 18:10:00,
2013-01-20 13:17:00,33.6,17.4,29.91,NNW,328,3.0,4.0,51,0.00,,,0.00,Wunderground v.1.15,2013-01-20 18:17:00,
2013-01-20 13:22:00,33.3,17.5,29.92,NNW,330,4.0,5.0,52,0.00,,,0.00,Wunderground v.1.15,2013-01-20 18:22:00,
2013-01-20 13:27:00,32.8,17.5,29.92,NNW,330,5.0,5.0,53,0.00,,,0.00,Wunderground v.1.15,2013-01-20 18:27:00,
2013-01-20 13:32:00,32.6,17.3,29.92,WNW,300,5.0,11.0,53,0.00,,,0.00,Wunderground v.1.15,2013-01-20 18:32:00,
2013-01-20 13:54:00,32.3,17.1,29.92,NNW,342,4.0,4.0,53,0.00,,,0.00,Wunderground v.1.15,2013-01-20 18:54:00,
2013-01-20 13:59:00,32.3,17.5,29.92,NNW,336,4.0,8.0,54,0.00,,,0.00,Wunderground v.1.15,2013-01-20 18:59:00,
2013-01-20 14:04:00,32.0,15.9,29.93,NNW,329,4.0,9.0,51,0.00,,,0.00,Wunderground v.1.15,2013-01-20 19:04:00,
2013-01-20 14:09:00,31.8,17.0,29.93,WSW,250,5.0,10.0,54,0.00,,,0.00,Wunderground v.1.15,2013-01-20 19:09:00,
2013-01-20 14:14:00,31.8,15.7,29.94,WNW,295,5.0,7.0,51,0.00,,,0.00,Wunderground v.1.15,2013-01-20 19:14:00,
2013-01-20 14:20:00,31.6,16.8,29.94,NNW,327,5.0,7.0,54,0.00,,,0.00,Wunderground v.1.15,2013-01-20 19:20:00,
2013-01-20 14:26:00,31.7,17.8,29.94,West,281,5.0,14.0,56,0.00,,,0.00,Wunderground v.1.15,2013-01-20 19:26:00,
2013-01-20 14:32:00,31.9,16.7,29.94,North,356,4.0,4.0,53,0.00,,,0.00,Wunderground v.1.15,2013-01-20 19:32:00,
2013-01-20 14:37:00,31.7,15.6,29.94,NNW,337,3.0,10.0,51,0.00,,,0.00,Wunderground v.1.15,2013-01-20 19:37:00,
2013-01-20 14:42:00,31.5,16.7,29.94,NW,316,4.0,7.0,54,0.00,,,0.00,Wunderground v.1.15,2013-01-20 19:42:00,
2013-01-20 14:47:00,31.2,16.9,29.95,NW,309,3.0,9.0,55,0.00,,,0.00,Wunderground v.1.15,2013-01-20 19:47:00,
2013-01-20 14:52:00,30.9,17.4,29.95,NNE,13,3.0,4.0,57,0.00,,,0.00,Wunderground v.1.15,2013-01-20 19:52:00,
2013-01-20 14:58:00,30.9,16.6,29.96,NW,311,3.0,5.0,55,0.00,,,0.00,Wunderground v.1.15,2013-01-20 19:58:00,
2013-01-20 15:03:00,30.7,17.3,29.96,WSW,248,3.0,6.0,57,0.00,,,0.00,Wunderground v.1.15,2013-01-20 20:03:00,
2013-01-20 15:08:00,30.4,15.7,29.95,NNW,336,4.0,6.0,54,0.00,,,0.00,Wunderground v.1.15,2013-01-20 20:08:00,
2013-01-20 15:13:00,30.5,16.2,29.96,WNW,293,4.0,5.0,55,0.00,,,0.00,Wunderground v.1.15,2013-01-20 20:13:00,
2013-01-20 15:18:00,30.4,15.7,29.96,NNE,18,3.0,9.0,54,0.00,,,0.00,Wunderground v.1.15,2013-01-20 20:18:00,
2013-01-20 15:23:00,30.4,16.1,29.96,NNW,332,3.0,4.0,55,0.00,,,0.00,Wunderground v.1.15,2013-01-20 20:23:00,
2013-01-20 15:28:00,30.0,14.9,29.97,NNW,330,4.0,6.0,53,0.00,,,0.00,Wunderground v.1.15,2013-01-20 20:28:00,
2013-01-20 15:34:00,29.5,14.9,29.97,WSW,257,4.0,4.0,54,0.00,,,0.00,Wunderground v.1.15,2013-01-20 20:34:00,
2013-01-20 15:39:00,29.6,15.4,29.96,North,355,4.0,5.0,55,0.00,,,0.00,Wunderground v.1.15,2013-01-20 20:39:00,
2013-01-20 15:44:00,29.6,15.4,29.97,NNW,345,3.0,3.0,55,0.00,,,0.00,Wunderground v.1.15,2013-01-20 20:44:00,
2013-01-20 15:49:00,29.5,15.3,29.97,NNW,335,4.0,5.0,55,0.00,,,0.00,Wunderground v.1.15,2013-01-20 20:49:00,
2013-01-20 15:54:00,29.4,15.6,29.97,NNW,338,3.0,3.0,56,0.00,,,0.00,Wunderground v.1.15,2013-01-20 20:54:00,
2013-01-20 16:02:00,29.2,14.6,29.97,NNW,329,2.0,3.0,54,0.00,,,0.00,Wunderground v.1.15,2013-01-20 21:02:00,
2013-01-20 16:07:00,28.9,14.7,29.97,NNW,336,3.0,6.0,55,0.00,,,0.00,Wunderground v.1.15,2013-01-20 21:07:00,
2013-01-20 16:12:00,28.9,15.2,29.98,NW,320,3.0,6.0,56,0.00,,,0.00,Wunderground v.1.15,2013-01-20 21:12:00,
2013-01-20 16:17:00,28.8,15.5,29.98,NW,318,3.0,6.0,57,0.00,,,0.00,Wunderground v.1.15,2013-01-20 21:17:00,
2013-01-20 16:22:00,28.6,14.9,29.98,NNW,340,3.0,3.0,56,0.00,,,0.00,Wunderground v.1.15,2013-01-20 21:22:00,
2013-01-20 16:27:00,28.3,14.6,29.98,NNW,340,3.0,7.0,56,0.00,,,0.00,Wunderground v.1.15,2013-01-20 21:27:00,
2013-01-20 16:33:00,27.9,15.0,29.97,NW,316,3.0,3.0,58,0.00,,,0.00,Wunderground v.1.15,2013-01-20 21:33:00,
2013-01-20 16:38:00,27.8,14.9,29.97,North,4,3.0,4.0,58,0.00,,,0.00,Wunderground v.1.15,2013-01-20 21:38:00,
2013-01-20 16:44:00,27.5,15.0,29.97,NW,311,2.0,5.0,59,0.00,,,0.00,Wunderground v.1.15,2013-01-20 21:44:00,
2013-01-20 16:49:00,27.2,15.1,29.97,NNW,331,2.0,5.0,60,0.00,,,0.00,Wunderground v.1.15,2013-01-20 21:49:00,
2013-01-20 16:55:00,27.0,15.7,29.97,NNW,341,1.0,2.0,62,0.00,,,0.00,Wunderground v.1.15,2013-01-20 21:55:00,
2013-01-20 17:02:00,26.9,15.2,29.98,NNE,18,1.0,1.0,61,0.00,,,0.00,Wunderground v.1.15,2013-01-20 22:02:00,
2013-01-20 17:07:00,26.7,15.4,29.99,NW,325,2.0,6.0,62,0.00,,,0.00,Wunderground v.1.15,2013-01-20 22:07:00,
2013-01-20 17:12:00,26.4,15.1,29.99,NW,305,3.0,4.0,62,0.00,,,0.00,Wunderground v.1.15,2013-01-20 22:12:00,
2013-01-20 17:18:00,26.3,15.4,29.99,NW,326,3.0,4.0,63,0.00,,,0.00,Wunderground v.1.15,2013-01-20 22:18:00,
2013-01-20 17:23:00,26.1,15.6,29.99,NNE,12,2.0,3.0,64,0.00,,,0.00,Wunderground v.1.15,2013-01-20 22:23:00,
2013-01-20 19:45:00,22.3,13.7,30.02,North,11,2.0,2.0,69,0.00,,,0.00,Wunderground v.1.15,2013-01-21 00:45:00,
2013-01-20 19:50:00,22.2,13.6,30.02,WNW,296,2.0,5.0,69,0.00,,,0.00,Wunderground v.1.15,2013-01-21 00:50:00,
2013-01-20 19:57:00,22.1,13.8,30.03,NW,320,2.0,2.0,70,0.00,,,0.00,Wunderground v.1.15,2013-01-21 00:57:00,
2013-01-20 20:02:00,22.0,13.4,30.03,NNW,333,3.0,8.0,69,0.00,,,0.00,Wunderground v.1.15,2013-01-21 01:02:00,
2013-01-20 20:44:00,21.4,13.5,30.04,NNW,347,2.0,2.0,71,0.00,,,0.00,Wunderground v.1.15,2013-01-21 01:44:00,
2013-01-20 20:50:00,21.2,12.9,30.04,NNW,345,1.0,4.0,70,0.00,,,0.00,Wunderground v.1.15,2013-01-21 01:50:00,
2013-01-20 20:55:00,21.2,13.6,30.04,NW,322,1.0,2.0,72,0.00,,,0.00,Wunderground v.1.15,2013-01-21 01:55:00,
2013-01-20 21:02:00,21.0,12.7,30.04,NNW,333,1.0,3.0,70,0.00,,,0.00,Wunderground v.1.15,2013-01-21 02:02:00,
2013-01-20 21:08:00,21.0,13.1,30.04,WNW,298,2.0,5.0,71,0.00,,,0.00,Wunderground v.1.15,2013-01-21 02:08:00,
2013-01-20 21:13:00,20.8,12.9,30.04,North,352,2.0,2.0,71,0.00,,,0.00,Wunderground v.1.15,2013-01-21 02:13:00,
2013-01-20 21:19:00,20.7,12.8,30.04,North,353,2.0,4.0,71,0.00,,,0.00,Wunderground v.1.15,2013-01-21 02:19:00,
2013-01-20 21:24:00,20.6,12.4,30.04,NNW,339,2.0,3.0,70,0.00,,,0.00,Wunderground v.1.15,2013-01-21 02:24:00,
2013-01-20 21:29:00,20.5,12.3,30.04,NNW,341,2.0,3.0,70,0.00,,,0.00,Wunderground v.1.15,2013-01-21 02:29:00,
2013-01-20 21:35:00,20.4,12.5,30.04,NNW,335,2.0,3.0,71,0.00,,,0.00,Wunderground v.1.15,2013-01-21 02:35:00,
2013-01-20 21:40:00,20.3,12.4,30.05,NNW,333,2.0,4.0,71,0.00,,,0.00,Wunderground v.1.15,2013-01-21 02:40:00,
2013-01-20 21:47:00,20.2,12.3,30.04,NNW,335,2.0,7.0,71,0.00,,,0.00,Wunderground v.1.15,2013-01-21 02:47:00,
2013-01-20 21:52:00,20.1,12.5,30.04,North,350,1.0,1.0,72,0.00,,,0.00,Wunderground v.1.15,2013-01-21 02:52:00,